Volver al catálogo

ATLAS 5 CENTAUR DEB

LostHEO
NORAD 46861·DEBRIS·🇺🇸 United States

Lanzado Oct 17, 2018 desde Cape Canaveral Space Force Station

Loading…

Próximos Pases (próximas 24 horas)

TLE

ObsoletoSource: Space-Track

Época: Jan 16, 2024, 09:31 UTC

1 46861U 18079DS  24016.39672487 -.00000066  00000-0  00000+0 0  9991
2 46861  11.4014 118.8939 4839548 154.7231 239.9369  1.78305214 21208

Sigue ATLAS 5 CENTAUR DEB en tiempo real con AllMySat

Download on the App Store